TimeCST,TemperatureF,Dew PointF,Humidity,Sea Level PressureIn,VisibilityMPH,Wind Direction,Wind SpeedMPH,Gust SpeedMPH,PrecipitationIn,Events,Conditions,WindDirDegrees,DateUTC
12:53 AM,28.9,25.0,85,30.01,6.0,SE,10.4,-,N/A,,Clear,140,2013-02-09 06:53:00
1:53 AM,28.0,25.0,88,29.98,6.0,SE,5.8,-,N/A,,Clear,130,2013-02-09 07:53:00
2:53 AM,28.9,26.1,89,29.96,6.0,SE,10.4,-,N/A,,Clear,140,2013-02-09 08:53:00
3:53 AM,28.0,25.0,88,29.94,6.0,SSE,10.4,-,N/A,,Clear,160,2013-02-09 09:53:00
4:53 AM,28.9,26.1,89,29.92,6.0,SSE,12.7,-,N/A,,Clear,160,2013-02-09 10:53:00
5:53 AM,28.9,26.1,89,29.91,6.0,SSE,11.5,-,N/A,,Clear,150,2013-02-09 11:53:00
6:53 AM,28.0,26.1,92,29.92,5.0,SSE,9.2,-,N/A,,Clear,150,2013-02-09 12:53:00
7:53 AM,28.0,25.0,88,29.92,3.0,SE,5.8,-,N/A,,Clear,140,2013-02-09 13:53:00
8:53 AM,30.0,27.0,88,29.91,4.0,SE,6.9,-,N/A,,Clear,140,2013-02-09 14:53:00
9:53 AM,35.1,30.0,82,29.89,5.0,South,10.4,19.6,N/A,,Haze,180,2013-02-09 15:53:00
10:53 AM,41.0,30.0,65,29.86,8.0,South,16.1,-,N/A,,Clear,190,2013-02-09 16:53:00
11:53 AM,46.9,28.0,48,29.81,10.0,South,19.6,26.5,N/A,,Clear,170,2013-02-09 17:53:00
12:53 PM,51.1,27.0,39,29.75,10.0,South,16.1,-,N/A,,Clear,190,2013-02-09 18:53:00
1:53 PM,50.0,28.0,43,29.73,10.0,SSW,18.4,27.6,N/A,,Scattered Clouds,210,2013-02-09 19:53:00
2:53 PM,48.9,30.0,48,29.69,10.0,South,18.4,26.5,N/A,,Scattered Clouds,170,2013-02-09 20:53:00
3:53 PM,48.0,32.0,54,29.68,10.0,SSE,12.7,-,0.00,,Mostly Cloudy,160,2013-02-09 21:53:00
4:39 PM,44.6,37.4,76,29.62,2.0,SE,10.4,-,0.05,Rain,Heavy Rain,130,2013-02-09 22:39:00
4:49 PM,44.6,37.4,76,29.61,7.0,SSE,9.2,-,0.05,Rain,Light Rain,150,2013-02-09 22:49:00
4:53 PM,44.1,37.9,79,29.66,10.0,SE,8.1,-,0.05,,Overcast,140,2013-02-09 22:53:00
5:53 PM,44.1,37.9,79,29.64,10.0,SE,6.9,-,N/A,,Overcast,140,2013-02-09 23:53:00
6:07 PM,44.6,39.2,81,29.59,10.0,SE,11.5,-,N/A,,Overcast,140,2013-02-10 00:07:00
6:53 PM,44.1,39.0,82,29.65,10.0,SSE,12.7,-,N/A,,Overcast,150,2013-02-10 00:53:00
7:40 PM,42.8,39.2,87,29.61,2.5,SSE,9.2,18.4,0.01,Rain,Light Rain,150,2013-02-10 01:40:00
7:53 PM,42.1,39.9,92,29.65,1.8,SSE,11.5,-,0.01,Rain,Light Rain,160,2013-02-10 01:53:00
8:05 PM,42.8,41.0,93,29.59,2.0,SE,8.1,-,0.01,Rain,Light Rain,140,2013-02-10 02:05:00
8:17 PM,42.8,39.2,87,29.59,2.0,SE,8.1,-,0.02,Rain,Light Rain,130,2013-02-10 02:17:00
8:26 PM,42.8,39.2,87,29.59,3.0,SE,9.2,-,0.02,Rain,Light Rain,140,2013-02-10 02:26:00
8:34 PM,42.8,39.2,87,29.58,4.0,SE,10.4,-,0.02,Rain,Light Rain,140,2013-02-10 02:34:00
8:53 PM,42.1,39.9,92,29.62,5.0,SSE,10.4,-,0.02,,Overcast,150,2013-02-10 02:53:00
9:30 PM,42.8,39.2,87,29.56,5.0,SSE,11.5,-,0.00,,Overcast,150,2013-02-10 03:30:00
9:53 PM,41.0,39.0,93,29.60,4.0,SE,9.2,-,0.00,,Overcast,140,2013-02-10 03:53:00
10:16 PM,41.0,39.2,93,29.54,4.0,SE,11.5,-,0.00,Rain,Light Rain,130,2013-02-10 04:16:00
10:53 PM,39.0,37.9,96,29.57,3.0,ESE,11.5,-,0.01,Rain,Light Rain,120,2013-02-10 04:53:00
11:53 PM,37.9,37.0,97,29.52,5.0,SE,8.1,-,0.01,Rain,Light Rain,140,2013-02-10 05:53:00